• Join FlightAware (Why Join?)
  • Login
  • US Flag 
08:13AM EDT


 

Airport Tracker/Info


-or-


 

Live Flight TrackerFlight Track Log ✈ EJA929 ✈ 06-Sep-2013 ✈ KRYY - KSSI

Flight Track Log - Related Links

Times and Time Zones

All times are in EDT time to prevent confusion due to time zone crossing. See the EJA929 flight status page for this flight to view local times or setup timezone preferences in your user account.

Time Position Orientation Groundspeed Altitude Reporting Facility
EDT Latitude Longitude Course Direction KTS MPH feet Rate Location/Type
04:25PM 34.0167 -84.5167 157° South 204 235 3,000  Level Atlanta TRACON
04:26PM 33.9260 -84.4948 157° South  Level Estimated
04:26PM 34.0000 -84.4667 112° Southeast 219 252 3,600  Level Atlanta TRACON
04:27PM 33.9333 -84.4667 180° South 216 249 4,000 360 Climbing Atlanta TRACON
04:28PM 33.8833 -84.4667 180° South 218 251 4,400 900 Climbing Atlanta TRACON
04:29PM 33.8167 -84.4667 180° South 229 264 5,800 780 Climbing Atlanta TRACON
04:30PM 33.7500 -84.4667 180° South 229 264 6,000 120 Climbing Atlanta TRACON
04:31PM 33.6833 -84.4667 180° South 233 268 6,100  Climbing Atlanta TRACON
04:32PM 33.6000 -84.4833 189° South 297 342 6,100  Level Atlanta TRACON
04:33PM 33.5333 -84.4833 180° South 284 327 6,100 1,080 Level Atlanta TRACON
04:35PM 33.4094 -84.4892 182° South 302 348 8,900 2,160 Climbing Atlanta Center
04:36PM 33.3342 -84.4914 181° South 307 353 11,500 2,700 Climbing Atlanta Center
04:37PM 33.2675 -84.4339 144° Southeast 292 336 14,400 2,460 Climbing Atlanta Center
04:38PM 33.2031 -84.3617 137° Southeast 298 343 16,500 1,680 Climbing Atlanta Center
04:39PM 33.1364 -84.2769 133° Southeast 336 387 17,800 1,140 Climbing Atlanta Center
04:40PM 33.0658 -84.1753 130° Southeast 378 435 18,800 840 Climbing Atlanta Center
04:41PM 32.9844 -84.0586 130° Southeast 405 466 19,500 540 Climbing Atlanta Center
04:42PM 32.9050 -83.9397 128° Southeast 438 504 19,900 360 Climbing Atlanta Center
04:43PM 32.8233 -83.8189 129° Southeast 460 529 20,300 660 Climbing Atlanta Center
04:44PM 32.7439 -83.6931 127° Southeast 468 539 21,300 960 Climbing Atlanta Center
04:45PM 32.6619 -83.5725 129° Southeast 468 539 22,300 840 Climbing Atlanta Center
04:46PM 32.5781 -83.4472 128° Southeast 468 539 23,000 120 Climbing Atlanta Center
04:49PM 32.2689 -82.9933 129° Southeast 499 574 23,000  Level Jacksonville Center
04:50PM 32.1811 -82.8631 129° Southeast 499 574 23,000 -240 Level Jacksonville Center
04:51PM 32.0956 -82.7406 129° Southeast 499 574 22,600 -540 Descending Jacksonville Center
04:52PM 32.0181 -82.6281 129° Southeast 494 568 22,000 -1,080 Descending Jacksonville Center
04:53PM 31.9322 -82.5033 129° Southeast 494 568 20,500 -1,800 Descending Jacksonville Center
04:54PM 31.8419 -82.3889 133° Southeast 488 562 18,500 -2,280 Descending Jacksonville Center
04:55PM 31.7350 -82.2942 143° Southeast 470 541 16,000 -2,340 Descending Jacksonville Center
04:56PM 31.6511 -82.2117 140° Southeast 411 473 13,900 -1,980 Descending Jacksonville Center
04:57PM 31.5942 -82.1339 131° Southeast 368 423 12,100 -2,340 Descending Jacksonville Center
04:58PM 31.5372 -82.0369 125° Southeast 330 380 9,300 -2,580 Descending Jacksonville Center
04:59PM 31.4950 -81.9619 123° Southeast 297 342 7,000 -2,400 Descending Jacksonville Center
05:00PM 31.4528 -81.8989 128° Southeast 273 314 4,600 -2,160 Descending Jacksonville Center
05:01PM 31.4000 -81.8361 135° Southeast 268 308 2,700 -1,320 Descending Jacksonville Center
05:02PM 31.3472 -81.7736 135° Southeast 248 285 2,000 -360 Descending Jacksonville Center
05:03PM 31.2906 -81.7450 157° South 212 244 2,000  Level Jacksonville Center
05:04PM 31.2342 -81.7189 158° South 221 254 2,000  Level Jacksonville Center
05:05PM 31.1900 -81.6831 145° Southeast 213 245 2,000  Level Jacksonville Center
05:06PM 31.1600 -81.6181 118° Southeast 202 232 2,000 -180 Level Jacksonville Center
05:07PM 31.1344 -81.5625 118° Southeast 202 232 1,700 -180 Descending Jacksonville Center
05:08PM 31.1089 -81.5069 118° Southeast 196 226 1,700  Level Jacksonville Center
05:09PM 31.0956 -81.4539 106° East 190 219 1,800 60 Climbing Jacksonville Center